SCP
0 0 0 0 0 0 0 0 0 0 0 0 0 0 0 0 0 0 0 0 0 -0 0 0 0 -0 -0 -0 -0 0 0 0 0 0 0 0 0 0
0 0 0 0 0 0 0 0 0 0 0 0 0 0 0 0 0 0 0 0 0 0 0 0 0 0 0 0 0 0 0 0 0 0 0 0 0 0
0 0 0 0 0 0 0 0 0 0 0 0 0 0 0 0 0 0 0 0 0 0 0 0 0 0 0 0 0 0 0 0 0 0 0 0 0 0
0 0 0 0 -0 0 0 0 0 0 0 0 0 0 0 0 0 0 0 0 0 0 0 0 0 0 0 0 0 0 0 0 0 0 0 0 0 0
0 0 0 0 0 0 0 0 0 0 0 0 0 0 0 0 0 0 0 0 0 0 0 0 0 0 0 0 0 0 0 0 0 0 0 0 0 0
0 0 0 0 0 0 0 0 0 0 0 0 0 0 0 0 0 0 0 0 0 0 0 0 0 0 0 0 0 0 0 0 0 0 0 0 0 0
0 0 0 0 0 0 0 0 0 0 1 0 0 0 0 0 0 0 0 0 0 0 0 0 0 0 0 0 0 0 0 0 0 0 0 0 0 0
0 0 0 0 0 0 0 0 0 1 0 0 0 0 0 0 0 0 0 0 0 0 0 0 0 0 0 0 0 0 0 0 0 0 0 0 0 0
0 1 0 0 0 0 0 0 0 0 0 1 0 0 0 0 1 1 1 0 0 0 0 0 0 0 0 0 0 0 0 0 0 0 0 0 0 0
0 1 1 0 0 1 0 1 1 0 0 0 0 0 1 1 1 1 1 0 0 0 0 0 0 0 0 0 0 0 0 0 0 0 0 0 0 0
1 1 1 1 0 0 1 1 1 1 0 0 0 0 0 0 0 0 0 0 0 0 0 0 0 0 0 0 0 0 0 0 0 0 0 0 0 0
0 1 0 0 0 0 0 1 1 0 0 0 0 0 0 0 0 0 0 0 0 0 0 0 0 0 0 0 0 0 0 0 0 0 0 0 0 0
0 0 1 0 0 0 0 1 1 1 0 0 1 1 1 0 0 0 0 0 0 0 0 0 0 0 0 0 0 0 0 0 0 0 0 0 0 0
1 0 0 0 0 0 0 0 0 0 0 1 1 0 0 0 0 0 0 0 0 0 0 0 0 0 0 0 0 0 0 0 0 0 0 0 0 0
1 0 0 0 0 0 0 0 0 0 0 1 1 0 0 0 0 0 0 0 0 0 0 0 0 0 0 0 0 0 0 0 0 0 0 0 0 0
0 1 0 0 0 0 0 0 0 0 0 1 1 0 0 0 0 0 0 0 0 0 0 0 0 0 0 0 0 0 0 0 0 0 0 0 0 0
0 0 0 0 0 0 0 0 0 0 0 1 1 0 0 0 0 0 0 0 0 0 0 0 0 0 0 0 0 0 0 0 0 0 0 0 0 0
0 0 0 0 1 1 1 0 0 0 0 0 0 0 0 0 0 0 0 0 0 0 0 0 0 0 0 0 0 0 0 0 0 0 0 0 0 0
0 0 0 0 1 1 1 0 0 0 1 0 0 0 0 0 0 0 0 0 0 0 0 0 0 0 0 0 0 0 0 0 0 0 0 0 0 0
0 0 0 1 1 1 1 0 0 0 0 0 0 0 0 0 0 0 0 0 0 0 0 0 0 0 0 0 0 0 0 0 0 0 0 0 0 0
0 -0 0 0 0 1 1 0 0 0 0 0 0 0 0 0 0 0 0 0 0 0 0 0 0 0 0 0 0 0 0 0 0 0 0 0 0 0
0 0 0 0 0 0 0 0 0 0 0 0 0 0 0 0 0 0 0 0 0 0 0 0 0 0 0 0 0 0 0 0 0 0 0 -0 0 0
0 0 0 0 0 0 0 0 0 0 0 0 0 0 0 0 0 0 0 0 0 0 0 0 0 0 0 0 0 0 0 0 0 0 0 0 0 -0
Wind_Speed_500mb
30 30 30 26 24 22 22 21 13 8 2 6 6 5 8 7 9 23 30 30 30 29 22 20 21 24 28 32 35 37 39 41 41 40 39 40 42 44
30 31 28 28 24 22 15 13 16 14 8 6 8 10 7 10 11 10 11 18 20 21 24 24 26 29 32 32 33 36 41 39 37 41 43 43 45 46
30 28 28 29 31 23 21 13 10 14 12 12 14 12 10 10 12 12 13 13 16 21 26 32 35 40 41 42 38 37 36 36 38 43 46 49 47 48
29 26 25 27 28 23 24 22 21 19 18 20 20 18 19 20 21 24 26 26 25 28 29 33 37 39 39 40 43 43 42 43 46 43 42 45 44 48
35 29 27 32 29 25 24 25 23 24 24 23 19 22 25 26 27 28 30 30 31 31 32 37 42 44 45 45 46 47 48 48 48 45 45 47 51 50
40 33 31 31 30 28 28 26 26 25 27 29 31 28 27 27 30 29 23 24 30 29 34 39 41 43 44 46 48 48 48 46 45 45 46 47 47 47
43 38 36 32 30 31 32 31 32 32 30 32 32 26 26 26 26 23 30 25 28 29 26 19 26 28 30 37 39 41 44 43 41 39 39 39 39 40
49 45 43 38 36 35 35 37 35 33 30 27 26 26 34 33 32 30 25 22 23 24 25 23 26 21 25 30 30 27 26 25 26 28 29 32 35 37
51 51 49 44 40 41 38 37 36 34 34 32 36 38 33 33 31 33 30 27 26 25 33 27 23 22 26 31 26 21 21 25 28 29 29 29 30 32
51 53 53 51 47 42 41 39 39 37 35 34 38 36 35 37 35 32 31 30 28 27 29 29 25 24 28 33 26 24 25 23 26 26 30 36 34 33
55 52 56 56 53 46 44 44 45 44 40 39 40 42 37 33 31 30 26 25 30 28 29 27 25 28 27 24 28 24 20 28 29 33 34 31 28 30
58 61 58 56 52 49 49 49 51 51 42 42 42 35 35 33 30 29 31 28 32 32 25 21 23 24 21 23 15 24 32 32 34 36 35 30 31 34
54 50 59 59 56 54 49 49 48 41 42 43 37 34 32 31 32 34 35 33 26 28 28 30 23 20 20 25 23 31 32 37 39 40 33 34 37 39
58 47 49 53 50 51 51 52 48 42 43 35 33 31 32 33 34 35 30 22 18 18 25 19 21 21 26 30 29 29 31 35 33 31 32 35 40 47
64 60 54 48 45 52 54 51 50 50 46 38 39 36 38 38 37 33 28 25 24 24 25 27 29 32 36 30 31 30 28 25 33 26 33 41 42 52
65 65 59 52 50 50 52 52 53 53 55 50 42 35 40 41 38 35 28 24 26 26 34 33 32 31 27 27 26 27 31 24 32 35 36 37 33 41
66 67 65 62 59 60 59 57 56 54 53 52 47 45 44 40 34 35 37 30 28 28 28 32 32 27 26 27 26 27 28 30 27 31 39 36 28 30
61 74 69 68 68 63 61 60 57 55 51 49 47 44 39 36 35 36 39 31 29 30 26 23 24 21 22 22 22 17 17 22 24 33 37 33 34 30
56 66 69 67 72 65 59 61 60 58 53 48 47 45 41 39 40 31 27 26 25 23 24 27 27 22 20 24 19 29 27 24 21 20 20 25 25 22
51 61 57 61 64 71 67 61 59 59 60 55 51 45 42 39 33 30 26 25 23 22 18 25 24 23 19 18 17 18 22 22 16 14 14 20 19 16
51 46 48 42 38 48 66 63 61 56 56 57 51 48 42 37 32 28 25 29 28 22 24 25 26 22 21 19 17 10 12 3 6 10 14 17 21 15
65 62 67 62 60 61 56 64 62 59 59 57 49 49 44 40 32 29 26 25 25 24 25 20 23 19 17 14 11 8 4 7 9 11 14 16 14 11
67 62 57 61 73 75 72 71 64 57 60 56 53 50 45 42 36 27 26 25 22 21 27 26 22 18 13 12 13 9 7 7 9 10 14 19 20 23
Wind_Direction_500mb
231 235 230 229 234 241 258 243 237 252 281 62 106 254 310 342 281 254 248 251 242 244 253 258 269 279 281 277 276 275 276 278 277 276 278 278 278 278
234 233 233 222 223 226 233 238 253 232 253 250 305 302 289 331 346 350 275 251 238 243 245 258 268 279 283 284 282 280 277 280 282 277 275 279 279 279
226 233 227 214 213 225 227 250 254 238 255 276 291 298 288 306 322 322 324 315 292 273 263 266 276 282 283 281 280 283 283 278 285 280 278 280 281 282
217 227 213 208 216 229 236 245 253 261 265 279 281 286 281 283 287 290 291 291 286 282 276 273 278 280 283 281 278 281 280 281 285 285 280 282 279 278
220 228 222 224 222 229 235 244 250 260 270 275 269 282 285 288 291 292 287 283 278 276 276 275 277 279 280 279 280 280 279 280 282 282 277 278 282 283
221 229 227 228 223 234 246 249 258 262 268 273 274 275 279 285 290 292 288 287 281 277 280 282 281 281 280 279 281 282 281 280 280 279 280 281 282 281
227 228 228 226 234 243 248 255 260 265 268 267 266 271 274 273 279 278 289 289 294 292 292 288 292 293 294 295 294 290 285 283 282 283 283 284 287 286
230 228 232 236 240 241 248 261 262 261 263 263 269 265 280 281 281 280 277 285 290 288 292 290 297 295 301 315 315 307 301 296 289 286 288 290 290 289
233 232 233 239 242 245 248 255 255 260 264 265 273 278 279 280 277 282 279 277 277 278 290 290 283 292 297 315 317 315 312 303 296 295 296 295 296 298
239 237 236 239 243 246 252 255 257 262 259 269 279 279 277 276 277 276 278 281 285 287 277 281 281 290 290 302 301 300 303 308 304 296 296 301 302 303
238 239 238 240 243 246 252 256 258 262 268 273 278 277 271 270 272 273 275 284 289 288 276 273 284 288 291 284 294 292 305 315 311 306 302 299 300 308
239 241 241 241 239 241 247 253 254 258 265 272 278 267 266 265 262 268 283 280 283 284 276 267 283 292 293 284 290 301 304 307 306 306 302 296 298 307
242 242 241 241 246 247 246 246 251 258 260 266 262 261 257 257 264 276 288 286 269 267 268 275 273 274 270 280 287 291 295 304 307 307 294 293 298 306
243 244 242 249 247 246 245 244 250 252 258 250 243 243 247 255 265 278 284 281 276 265 256 269 270 273 276 280 282 286 295 302 306 307 302 304 307 309
245 248 252 254 249 242 243 244 246 246 243 235 237 239 247 259 263 267 271 276 274 270 270 269 271 278 280 275 276 274 272 285 300 304 301 304 309 313
244 246 248 248 244 243 243 245 245 245 246 245 236 238 251 255 261 253 259 264 267 268 270 269 277 279 280 279 269 272 283 275 290 297 298 301 304 310
240 244 247 245 244 243 244 245 247 247 242 240 234 240 249 251 247 250 261 259 259 267 267 278 279 275 281 282 274 278 281 296 296 296 301 303 306 309
236 234 234 243 245 244 244 247 248 240 234 232 234 235 239 241 242 253 260 256 260 267 260 257 274 281 293 291 280 281 286 287 291 297 303 305 312 316
234 236 242 234 240 238 234 241 243 234 233 234 237 238 239 241 247 246 245 253 263 252 254 266 269 270 278 282 283 282 286 282 291 305 304 320 330 334
241 236 235 227 234 236 232 232 234 234 233 232 235 236 239 242 238 234 237 248 247 248 250 260 267 278 279 281 284 292 284 288 293 304 318 336 351 359
237 257 251 240 230 229 234 233 232 230 228 231 234 234 242 234 225 227 235 235 232 235 246 256 259 270 277 283 291 292 295 343 33 31 20 21 22 13
260 257 262 252 248 249 239 234 228 225 227 230 230 232 236 230 224 229 231 228 232 235 232 234 259 261 268 273 274 263 278 327 360 359 5 7 4 345
255 266 265 263 254 248 247 237 227 222 223 224 227 232 232 230 228 225 221 222 226 224 238 247 249 248 241 227 212 220 273 324 323 333 330 352 350 344
Wind_Speed_850mb
30 30 30 26 24 22 22 21 13 8 2 6 6 5 8 7 9 23 30 30 30 29 22 20 21 24 28 32 35 37 39 41 41 40 39 40 42 44
30 31 28 28 24 22 15 13 16 14 8 6 8 10 7 10 11 10 11 18 20 21 24 24 26 29 32 32 33 36 41 39 37 41 43 43 45 46
30 28 28 29 31 23 21 13 10 14 12 12 14 12 10 10 12 12 13 13 16 21 26 32 35 40 41 42 38 37 36 36 38 43 46 49 47 48
29 26 25 27 28 23 24 22 21 19 18 20 20 18 19 20 21 24 26 26 25 28 29 33 37 39 39 40 43 43 42 43 46 43 42 45 44 48
35 29 27 32 29 25 24 25 23 24 24 23 19 22 25 26 27 28 30 30 31 31 32 37 42 44 45 45 46 47 48 48 48 45 45 47 51 50
40 33 31 31 30 28 28 26 26 25 27 29 31 28 27 27 30 29 23 24 30 29 34 39 41 43 44 46 48 48 48 46 45 45 46 47 47 47
43 38 36 32 30 31 32 31 32 32 30 32 32 26 26 26 26 23 30 25 28 29 26 19 26 28 30 37 39 41 44 43 41 39 39 39 39 40
49 45 43 38 36 35 35 37 35 33 30 27 26 26 34 33 32 30 25 22 23 24 25 23 26 21 25 30 30 27 26 25 26 28 29 32 35 37
51 51 49 44 40 41 38 37 36 34 34 32 36 38 33 33 31 33 30 27 26 25 33 27 23 22 26 31 26 21 21 25 28 29 29 29 30 32
51 53 53 51 47 42 41 39 39 37 35 34 38 36 35 37 35 32 31 30 28 27 29 29 25 24 28 33 26 24 25 23 26 26 30 36 34 33
55 52 56 56 53 46 44 44 45 44 40 39 40 42 37 33 31 30 26 25 30 28 29 27 25 28 27 24 28 24 20 28 29 33 34 31 28 30
58 61 58 56 52 49 49 49 51 51 42 42 42 35 35 33 30 29 31 28 32 32 25 21 23 24 21 23 15 24 32 32 34 36 35 30 31 34
54 50 59 59 56 54 49 49 48 41 42 43 37 34 32 31 32 34 35 33 26 28 28 30 23 20 20 25 23 31 32 37 39 40 33 34 37 39
58 47 49 53 50 51 51 52 48 42 43 35 33 31 32 33 34 35 30 22 18 18 25 19 21 21 26 30 29 29 31 35 33 31 32 35 40 47
64 60 54 48 45 52 54 51 50 50 46 38 39 36 38 38 37 33 28 25 24 24 25 27 29 32 36 30 31 30 28 25 33 26 33 41 42 52
65 65 59 52 50 50 52 52 53 53 55 50 42 35 40 41 38 35 28 24 26 26 34 33 32 31 27 27 26 27 31 24 32 35 36 37 33 41
66 67 65 62 59 60 59 57 56 54 53 52 47 45 44 40 34 35 37 30 28 28 28 32 32 27 26 27 26 27 28 30 27 31 39 36 28 30
61 74 69 68 68 63 61 60 57 55 51 49 47 44 39 36 35 36 39 31 29 30 26 23 24 21 22 22 22 17 17 22 24 33 37 33 34 30
56 66 69 67 72 65 59 61 60 58 53 48 47 45 41 39 40 31 27 26 25 23 24 27 27 22 20 24 19 29 27 24 21 20 20 25 25 22
51 61 57 61 64 71 67 61 59 59 60 55 51 45 42 39 33 30 26 25 23 22 18 25 24 23 19 18 17 18 22 22 16 14 14 20 19 16
51 46 48 42 38 48 66 63 61 56 56 57 51 48 42 37 32 28 25 29 28 22 24 25 26 22 21 19 17 10 12 3 6 10 14 17 21 15
65 62 67 62 60 61 56 64 62 59 59 57 49 49 44 40 32 29 26 25 25 24 25 20 23 19 17 14 11 8 4 7 9 11 14 16 14 11
67 62 57 61 73 75 72 71 64 57 60 56 53 50 45 42 36 27 26 25 22 21 27 26 22 18 13 12 13 9 7 7 9 10 14 19 20 23
Wind_Direction_850mb
231 235 230 229 234 241 258 243 237 252 281 62 106 254 310 342 281 254 248 251 242 244 253 258 269 279 281 277 276 275 276 278 277 276 278 278 278 278
234 233 233 222 223 226 233 238 253 232 253 250 305 302 289 331 346 350 275 251 238 243 245 258 268 279 283 284 282 280 277 280 282 277 275 279 279 279
226 233 227 214 213 225 227 250 254 238 255 276 291 298 288 306 322 322 324 315 292 273 263 266 276 282 283 281 280 283 283 278 285 280 278 280 281 282
217 227 213 208 216 229 236 245 253 261 265 279 281 286 281 283 287 290 291 291 286 282 276 273 278 280 283 281 278 281 280 281 285 285 280 282 279 278
220 228 222 224 222 229 235 244 250 260 270 275 269 282 285 288 291 292 287 283 278 276 276 275 277 279 280 279 280 280 279 280 282 282 277 278 282 283
221 229 227 228 223 234 246 249 258 262 268 273 274 275 279 285 290 292 288 287 281 277 280 282 281 281 280 279 281 282 281 280 280 279 280 281 282 281
227 228 228 226 234 243 248 255 260 265 268 267 266 271 274 273 279 278 289 289 294 292 292 288 292 293 294 295 294 290 285 283 282 283 283 284 287 286
230 228 232 236 240 241 248 261 262 261 263 263 269 265 280 281 281 280 277 285 290 288 292 290 297 295 301 315 315 307 301 296 289 286 288 290 290 289
233 232 233 239 242 245 248 255 255 260 264 265 273 278 279 280 277 282 279 277 277 278 290 290 283 292 297 315 317 315 312 303 296 295 296 295 296 298
239 237 236 239 243 246 252 255 257 262 259 269 279 279 277 276 277 276 278 281 285 287 277 281 281 290 290 302 301 300 303 308 304 296 296 301 302 303
238 239 238 240 243 246 252 256 258 262 268 273 278 277 271 270 272 273 275 284 289 288 276 273 284 288 291 284 294 292 305 315 311 306 302 299 300 308
239 241 241 241 239 241 247 253 254 258 265 272 278 267 266 265 262 268 283 280 283 284 276 267 283 292 293 284 290 301 304 307 306 306 302 296 298 307
242 242 241 241 246 247 246 246 251 258 260 266 262 261 257 257 264 276 288 286 269 267 268 275 273 274 270 280 287 291 295 304 307 307 294 293 298 306
243 244 242 249 247 246 245 244 250 252 258 250 243 243 247 255 265 278 284 281 276 265 256 269 270 273 276 280 282 286 295 302 306 307 302 304 307 309
245 248 252 254 249 242 243 244 246 246 243 235 237 239 247 259 263 267 271 276 274 270 270 269 271 278 280 275 276 274 272 285 300 304 301 304 309 313
244 246 248 248 244 243 243 245 245 245 246 245 236 238 251 255 261 253 259 264 267 268 270 269 277 279 280 279 269 272 283 275 290 297 298 301 304 310
240 244 247 245 244 243 244 245 247 247 242 240 234 240 249 251 247 250 261 259 259 267 267 278 279 275 281 282 274 278 281 296 296 296 301 303 306 309
236 234 234 243 245 244 244 247 248 240 234 232 234 235 239 241 242 253 260 256 260 267 260 257 274 281 293 291 280 281 286 287 291 297 303 305 312 316
234 236 242 234 240 238 234 241 243 234 233 234 237 238 239 241 247 246 245 253 263 252 254 266 269 270 278 282 283 282 286 282 291 305 304 320 330 334
241 236 235 227 234 236 232 232 234 234 233 232 235 236 239 242 238 234 237 248 247 248 250 260 267 278 279 281 284 292 284 288 293 304 318 336 351 359
237 257 251 240 230 229 234 233 232 230 228 231 234 234 242 234 225 227 235 235 232 235 246 256 259 270 277 283 291 292 295 343 33 31 20 21 22 13
260 257 262 252 248 249 239 234 228 225 227 230 230 232 236 230 224 229 231 228 232 235 232 234 259 261 268 273 274 263 278 327 360 359 5 7 4 345
255 266 265 263 254 248 247 237 227 222 223 224 227 232 232 230 228 225 221 222 226 224 238 247 249 248 241 227 212 220 273 324 323 333 330 352 350 344